Regional Weather Roundup
Issued by NWS

Home | Current Version | Previous Version | Graphics & Text | Print | Product List | Glossary On
Versions: 1 2 3 4 5 6 7 8 9 10 11 12 13 14 15 16 17 18 19 20 21 22 23 24 25 26 27 28 29 30 31 32 33 34 35 36 37 38 39 40 41 42 43 44 45 46 47 48 49 50
000
ASUS43 KFSD 200810
RWRSD

WEATHER ROUNDUP FOR SOUTH DAKOTA
NATIONAL WEATHER SERVICE SIOUX FALLS SD
200 AM CST SAT DEC 20 2014

NOTE: "FAIR" INDICATES FEW OR NO CLOUDS BELOW 12,000 FEET WITH NO
SIGNIFICANT WEATHER AND/OR OBSTRUCTIONS TO VISIBILITY.


SDZ001>005-009-010-012>017-200900-
NORTHWEST AND NORTH CENTRAL SOUTH DAKOTA

CITY           SKY/WX    TMP DP  RH WIND       PRES   REMARKS
BUFFALO          N/A     26  19  74 S5        29.81F WCI  20
FAITH            N/A     31  22  69 S9        29.90F WCI  23
MOBRIDGE       CLEAR     20  17  88 SE6       29.92F WCI  12
$$

SDZ012>016-024>037-041>051-057-063-072>074-200900-
SOUTHWEST AND SOUTH CENTRAL SOUTH DAKOTA

CITY           SKY/WX    TMP DP  RH WIND       PRES   REMARKS
RAPID CTY ARPT CLEAR     24  17  74 W3        29.90S
PIERRE         FOG       14  11  87 CALM      29.95F VSB 3/4
CUSTER         CLEAR     28  15  58 W7        29.89S WCI  21
ELLSWORTH AFB  CLEAR     24  18  76 W8        29.88F WCI  15
PHILIP         CLEAR     21  17  84 CALM      29.94S
PINE RIDGE     CLEAR     18  13  80 W3        29.94F
SPEARFISH      FAIR      28  18  64 CALM      29.90S
WINNER         FAIR      22  16  78 S3        29.97S
$$

SDZ004>011-016>023-039-040-200900-
NORTHEAST SOUTH DAKOTA

CITY           SKY/WX    TMP DP  RH WIND       PRES   REMARKS
ABERDEEN       CLOUDY    28  25  88 SW10      30.01S FOG     WCI  19
WATERTOWN      CLOUDY    28  27  96 S15G21    30.00S FOG     WCI  16
SISSETON         N/A     30  28  92 W7        30.03R WCI  23
$$

SDZ017-020-022-023-036>040-048>070-200900-
SOUTHEAST SOUTH DAKOTA

CITY           SKY/WX    TMP DP  RH WIND       PRES   REMARKS
SIOUX FALLS    CLOUDY    31  28  89 S8        30.06R WCI  23
HURON          CLOUDY    27  26  96 S10       30.03R FOG     WCI  17
CHAMBERLAIN    FOG       11   9  90 E5        29.98F VSB 1/4 WCI   3
MITCHELL       CLOUDY    27  27 100 S6        30.04S FOG     WCI  20
YANKTON        CLOUDY    34  28  80 S5        30.06S WCI  30
$$

ABBREVIATIONS USED IN REMARKS
   TC - TEMPERATURE IN CELSIUS
  WCI - WIND CHILL INDEX
   HX - HEAT INDEX
  VSB - VISIBILITY



USA.gov is the U.S. government's official web portal to all federal, state and local government web resources and services.